Hourly Weather Roundup
Issued by NWS Central Illinois

Home | Current Version | Previous Version | Text Only | Print | Product List | Glossary On
Versions: 1 2 3 4 5 6 7 8 9 10 11 12 13 14 15 16 17 18 19 20 21 22 23 24 25 26 27 28 29 30 31 32 33 34 35 36 37 38 39 40 41 42 43 44 45 46 47 48 49 50
000
NZUS43 KILX 211810
HWRILX

Area Weather Roundup
National Weather Service Lincoln IL
100 PM CDT SAT OCT 21 2017

NOTE:  "FAIR" indicates few or no clouds below 12,000 feet, with
       no sigificant weather and/or obstructions to visibility.


CITY           SKY/WX    TMP DP  RH WIND       PRES   REMARKS
Bloomington    PTSUNNY   71  58  63 S22       30.07F
6HR MIN TEMP:  55; 6HR MAX TEMP:  72;

Champaign      MOSUNNY   78  57  48 S23       30.09F
6HR MIN TEMP:  51; 6HR MAX TEMP:  78;

Danville       MOSUNNY   74  55  51 S13G20    30.09F
6HR MIN TEMP:  52; 6HR MAX TEMP:  75;

Decatur        CLOUDY    70  58  65 S16       30.08F
6HR MIN TEMP:  58; 6HR MAX TEMP:  72; 6HR PCP:  0.01;

Effingham      MOSUNNY   77  58  52 SE9G20    30.11F
6HR MIN TEMP:  55; 6HR MAX TEMP:  78;

Flora          MOSUNNY   76  58  53 S13G20    30.12S
6HR MIN TEMP:  51; 6HR MAX TEMP:  77;

Galesburg      SUNNY     82  67  60 S20G26    29.95F HX  84
6HR MIN TEMP:  64; 6HR MAX TEMP:  82;

Jacksonville   SUNNY     74  60  61 S21G28    30.00F
6HR MIN TEMP:  61; 6HR MAX TEMP:  75;

Lacon          SUNNY     74  57  54 S18       29.99F
6HR MIN TEMP:  61; 6HR MAX TEMP:  75;

Lawrenceville  MOSUNNY   75  56  51 S10       30.15F
6HR MIN TEMP:  52; 6HR MAX TEMP:  75;

Litchfield     CLOUDY    70  58  66 S17G23    30.06F
6HR MIN TEMP:  59; 6HR MAX TEMP:  72;

$$


CITY           SKY/WX    TMP DP  RH WIND       PRES   REMARKS
Lincoln        CLOUDY    73  60  65 S16       30.04F
6HR MIN TEMP:  58; 6HR MAX TEMP:  74;

Macomb         SUNNY     76  59  55 S17       29.96F
6HR MIN TEMP:  58; 6HR MAX TEMP:  76;

Mattoon        CLOUDY    75  58  55 S9G20     30.10F
6HR MIN TEMP:  54; 6HR MAX TEMP:  75;

Mt Carmel AP   MOSUNNY   76  52  43 S9        30.14F
6HR MIN TEMP:  49; 6HR MAX TEMP:  76;

Olney-Noble AP MOSUNNY   74  52  44 S9G16     30.13F
Paris AP       MOSUNNY   74  56  55 S13       30.13F
6HR MIN TEMP:  49; 6HR MAX TEMP:  74;

Peoria         SUNNY     75  59  57 S18G28    29.99F
6HR MIN TEMP:  61; 6HR MAX TEMP:  75;

Pontiac        MOSUNNY   74  58  56 S22G28    30.05F
6HR MIN TEMP:  58; 6HR MAX TEMP:  75;

Rantoul        CLOUDY    76  60  56 S15G23    30.09F
6HR MIN TEMP:  53; 6HR MAX TEMP:  76;

Robinson       MOSUNNY   72  54  54 S7        30.14F
6HR MIN TEMP:  46; 6HR MAX TEMP:  73;

Springfield    PTSUNNY   74  61  63 S20G29    30.03F
6HR MIN TEMP:  61; 6HR MAX TEMP:  76;

Taylorville    PTSUNNY   71  59  66 S14G24    30.06F
6HR MIN TEMP:  56; 6HR MAX TEMP:  72;

$$

...REGIONAL REPORTS...


CITY           SKY/WX    TMP DP  RH WIND       PRES   REMARKS
Chicago O`Hare MOSUNNY   74  55  51 S18G25    30.03F
Kankakee       CLOUDY    71  56  59 S14G21    30.09F
Moline         SUNNY     76  58  53 S21G29    29.90F
Mount Sterling SUNNY     78  60  54 S14G24    29.95F
Mount Vernon   PTSUNNY   75  57  53 S13       30.11F
Pittsfield     SUNNY     77  62  59 S20G26    29.97F
Quincy         SUNNY     78  60  53 S24G33    29.93F
Rockford       MOSUNNY   75  55  49 S18       29.98F
$$


CITY           SKY/WX    TMP DP  RH WIND       PRES   REMARKS
Burlington     SUNNY     77  62  59 S14G29    29.90F
Cedar Rapids   SUNNY     77  60  55 S20G32    29.83F
Des Moines     CLOUDY    69  59  70 S22G31    29.79S
Kirksville     MOSUNNY   78  64  61 SW21G30   29.88F HX  80
Ottumwa        SUNNY     77  61  57 S26G32    29.81F
St Louis       CLOUDY    71  64  78 SE12      30.03F
$$


CITY           SKY/WX    TMP DP  RH WIND       PRES   REMARKS
Terre Haute    CLOUDY    71  53  52 S12       30.15F
Evansville     MOSUNNY   73  51  46 S7        30.16F
Indianapolis   PTSUNNY   72  49  44 S13       30.17F
Lafayette      MOSUNNY   73  54  51 S12G17    30.13F
Madison        MOSUNNY   72  56  57 S23       29.90F
Milwaukee      PTSUNNY   71  54  54 S16G25    29.99F
$$






USA.gov is the U.S. government's official web portal to all federal, state and local government web resources and services.